Regional Weather Roundup
Issued by NWS

Home | Current Version | Previous Version | Graphics & Text | Print | Product List | Glossary On
Versions: 1 2 3 4 5 6 7 8 9 10 11 12 13 14 15 16 17 18 19 20 21 22 23 24 25 26 27 28 29 30 31 32 33 34 35 36 37 38 39 40 41 42 43 44 45 46 47 48 49 50
000
ASUS45 KBOU 241407
RWRCO

WEATHER ROUNDUP FOR COLORADO
NATIONAL WEATHER SERVICE DENVER/BOULDER CO
700 AM MST MON NOV 24 2014

NOTE: "FAIR" INDICATES FEW OR NO CLOUDS BELOW 12000 FEET WITH NO
SIGNIFICANT WEATHER AND/OR OBSTRUCTIONS TO VISIBILITY.

COZ001>005-013-030-031-241500-
...NORTHWEST COLORADO...

CITY           SKY/WX    TMP DP  RH WIND       PRES   REMARKS
CRAIG          LGT SNOW  24  20  84 W6        30.04R FOG     WCI  17
HAYDEN         CLOUDY    19  16  86 CALM      30.02R VSB 1/4
MEEKER         LGT SNOW  22  18  85 CALM      30.07R FOG
MOUNT WERNER   NOT AVBL
STEAMBOAT SPGS CLOUDY    19  17  93 CALM      30.00S VSB 3/4
WALDEN         CLOUDY    18  10  73 SW7       29.91R WCI   8
$$

COZ006>008-011-241500-
...WEST CENTRAL VALLEYS...

CITY           SKY/WX    TMP DP  RH WIND       PRES   REMARKS
GRAND JUNCTION PTCLDY    19  14  81 E8        30.14R WCI   9
MONTROSE       CLOUDY    24  13  62 CALM      30.15R
EAGLE          FLURRIES  23  18  80 S5        30.08R WCI  17
RIFLE          LGT SNOW  22  19  89 CALM      30.12S FOG
DELTA          CLOUDY    25  18  74 NE7       30.15S WCI  17
NUCLA          CLOUDY    23  12  63 SE5       30.20R WCI  17
$$

COZ017>023-064>068-241500-
...SOUTHWEST COLORADO...

CITY           SKY/WX    TMP DP  RH WIND       PRES   REMARKS
DURANGO        MOCLDY    18   8  65 E3        30.07S
CORTEZ         CLEAR     16  11  80 CALM      30.16F
PAGOSA SPRINGS MOCLDY    14   5  66 CALM      30.07R
TELLURIDE      NOT AVBL
WOLF CREEK PAS PTCLDY     5  -8  56 MISG      29.94R
$$

COZ009-010-012-014-032>034-037-058>063-241500-
...CENTRAL COLORADO...

CITY           SKY/WX    TMP DP  RH WIND       PRES   REMARKS
ASPEN          LGT SNOW  17  14  88 CALM      30.02S FOG
BUENA VISTA    CLOUDY    20   4  50 W7        29.98R WCI  11
COPPER MTN     NOT AVBL
BERTHOUD PASS  SNOW       0  -4  85 MISG      29.80R VSB 1/4
COTTONWOOD PAS CLOUDY    18   1  49 W24G39    29.89R WCI   0
GUNNISON       MOCLDY    10   1  67 CALM      30.10R
KREMMLING      LGT SNOW  19  14  79 W9        29.99R WCI   9
LEADVILLE      LGT SNOW   9   4  80 NE5       29.93R WCI   1
MONARCH PASS   CLOUDY     1  -2  85 MISG      29.98F
SALIDA         CLOUDY    25   3  38 W29G36    30.05S WCI   8
SUNLIGHT       CLOUDY   N/A N/A N/A CALM      29.96R
WILKERSON PASS MOCLDY     5   0  78 W16G28    29.85R WCI -14
$$

COZ069>075-241500-
...SAN LUIS VALLEY/SANGRE DE CRISTO MOUNTAINS...

CITY           SKY/WX    TMP DP  RH WIND       PRES   REMARKS
ALAMOSA        PTCLDY     2  -3  80 CALM      30.04R
LA VETA PASS   MOCLDY     9   1  72 MISG      29.89R
SAGUACHE       NOT AVBL
$$

COZ035-036-038>040-241500-
...NORTHERN COLORADO FRONT RANGE...

CITY           SKY/WX    TMP DP  RH WIND       PRES   REMARKS
DENVER INTL AP CLOUDY    31   9  39 W13       29.87R WCI  21
DMNS CITY PARK   N/A     31   5  33 N2        29.90S
AURORA         MOCLDY    27   8  43 W8        29.90R WCI  19
FRONT RANGE AP CLOUDY    32  14  47 W13       29.89R WCI  22
ERIE MUNI ARPT MOCLDY    32   8  36 W6        29.89R WCI  26
BOULDER MUN AP MOCLDY    32   9  37 E9G23     29.86R WCI  24
CENTENNIAL     MOCLDY    25   6  44 SW6       29.89R WCI  18
BROOMFIELD     MOCLDY    32   7  34 W29G35    29.87R WCI  18
FORT COLLINS   CLOUDY    37   7  28 NW15G23   29.88R
LONGMONT       CLOUDY    32  10  39 CALM      29.90R
$$

COZ041-046-047-076>085-087-088-241500-
...PIKES PEAK/PALMER DIVIDE AND SOUTHERN FOOTHILLS...

CITY           SKY/WX    TMP DP  RH WIND       PRES   REMARKS
COLO. SPRINGS  CLOUDY    29   4  34 NW13G21   29.89R WCI  19
A. F. ACADEMY  CLOUDY    26   3  36 N14       29.88R WCI  15
ELLICOTT       NOT AVBL
FALCON         NOT AVBL
FORT CARSON    CLOUDY    21   4  47 SE6       29.87S WCI  14
LIMON          PTCLDY    17   6  62 W13       29.87R WCI   4
MONUMENT HILL  CLOUDY    16   3  57 W8        29.88R WCI   5
TRINIDAD       CLOUDY    18  10  71 W12       29.96R WCI   5
$$

COZ042>045-048>051-090-091-241500-
...NORTHEAST COLORADO...

CITY           SKY/WX    TMP DP  RH WIND       PRES   REMARKS
GREELEY ARPT   CLOUDY    34  12  40 NW9       29.88R WCI  26
AKRON          PTCLDY    25  12  58 W15       29.84R WCI  13
BURLINGTON     CLEAR     28   8  43 W16       29.86R WCI  16
WRAY           CLEAR     26  13  58 SW8       29.86R WCI  17
STERLING       PTCLDY    25  18  74 SW7       29.85R WCI  17
HOLYOKE        CLEAR     34  19  55 NW13G18   29.83R WCI  25
FORT MORGAN    MOCLDY    22  12  64 SW5       29.89R WCI  16
$$

COZ086-089-092>099-241500-
...SOUTHEAST COLORADO...

CITY           SKY/WX    TMP DP  RH WIND       PRES   REMARKS
PUEBLO         CLOUDY    34   8  33 W23G31    29.91S WCI  22
LA JUNTA       PTCLDY    26  14  60 W17       29.92S WCI  13
LAMAR          CLEAR     22  17  81 W9        29.93R WCI  12
SPRINGFIELD      N/A     23  13  65 W13       29.94R WCI  11
$$


USA.gov is the U.S. government's official web portal to all federal, state and local government web resources and services.